GSAT0215 (GALILEO 19) 1 43055U 17079A 21112.25588497 .00000011 00000-0 00000-0 0 9998 2 43055 56.0361 273.3120 0000979 316.6856 43.2767 1.70474314 20909 GSAT0216 (GALILEO 20) 1 43056U 17079B 21111.96183790 .00000012 00000-0 00000-0 0 9994 2 43056 56.0369 273.3197 0002654 290.1036 69.8389 1.70474466 20913 GSAT0217 (GALILEO 21) 1 43057U 17079C 21112.18195988 .00000011 00000-0 00000-0 0 9991 2 43057 56.0344 273.3142 0002549 314.0920 45.8573 1.70474367 20906 GSAT0218 (GALILEO 22) 1 43058U 17079D 21111.22879578 .00000014 00000-0 00000-0 0 9993 2 43058 56.0358 273.3375 0002995 283.0508 76.8886 1.70474437 20912 ARIANE 5 R/B 1 43059U 17079E 21112.55010321 .00000009 00000-0 00000-0 0 9998 2 43059 56.0054 272.0978 0002056 282.6178 77.3281 1.73188392 21266